Retour au catalogue

COSMOS 87

ActifMilitaireLEO
NORAD 1585·PAYLOAD·🇷🇺 Russia

Lancé Sep 18, 1965 depuis Baikonur Cosmodrome

Loading…

Prochains Passages (prochaines 24 heures)

TLE

FraisSource: Space-Track

Époque: Sep 14, 2026, 10:54 UTC

1 01585U 65073B   26257.45464677 -.00000107  00000-0 -74150-4 0  9996
2 01585  56.0619  43.8283 0205392 146.3697 249.1781 12.47464405776899

Suivez COSMOS 87 en temps réel avec AllMySat

Download on the App Store